Location: Unspecified
(42.5334°N, 0.0000°E)
Time: 02:57:52
(UTC+00:00)

Vanguard 2 - Visible Passes

Search period start: 04 April 2026 00:00
Search period end: 14 April 2026 00:00
Orbit: 554 x 2896 km, 32.9° (Epoch: 29 March)

Date Brightness Start Highest point End Pass type
(mag) Time Alt. Az. Time Alt. Az. Time Alt. Az.
4 Apr 10.4 20:01:35 10° W 20:11:30 39° SSW 20:21:32 19° SSE visible
4 Apr 11.1 22:12:17 10° WSW 22:21:22 20° SW 22:22:27 20° SSW visible
5 Apr 10.6 20:13:39 10° W 20:23:12 34° SSW 20:32:33 18° SSE visible
5 Apr 11.3 22:25:52 10° WSW 22:32:56 15° SW 22:33:29 15° SW visible
6 Apr 10.7 20:25:52 10° WSW 20:34:53 28° SSW 20:43:38 17° SSE visible
6 Apr 11.5 22:42:08 10° SW 22:44:31 10° SW 22:44:33 10° SW visible
7 Apr 10.9 20:38:20 10° WSW 20:46:34 23° SSW 20:54:45 14° S visible
8 Apr 10.3 18:41:17 10° WSW 18:48:52 34° SSW 19:00:18 10° SE visible
8 Apr 11.1 20:51:14 10° WSW 20:58:15 18° SSW 21:05:56 11° S visible
9 Apr 10.5 18:53:20 10° WSW 19:00:37 29° SSW 19:11:09 10° SSE visible
9 Apr 11.3 21:05:08 10° SW 21:09:56 13° SSW 21:15:26 10° S visible
10 Apr 10.7 19:05:37 10° WSW 19:12:21 24° SSW 19:21:43 10° SSE visible
11 Apr 10.9 19:18:11 10° WSW 19:24:06 19° SSW 19:31:49 10° SSE visible
12 Apr 11.1 19:31:25 10° SW 19:35:50 14° SSW 19:41:08 10° S visible
